Starlink 35599

operational
NORAD ID: 66102 Int'l Des: 2025-236 Owner: SPXS Country: US Constellation: starlink
NOTLE

Über Starlink 35599

Beschreibung wird geladen...

Live-Position

3D-Globus wird geladen...

Nächste Überflüge

Höhenverlauf

Altitude vs Time

uPlot chart will show altitude changes over time

Zweizeiliger Elementsatz

1 66102C 25236T 25293.06298611 .00581640 00000+0 88473-3 0 2930
2 66102 53.1607 48.3560 0008643 261.2425 247.0182 16.03091597 14
Epoch: 20. Okt. 2025 • Age: 30 hours

Aktueller Status

Höhe 263.9 km
Geschwindigkeit 7.75 km/s
Subsatellitenpunkt -14.60°S, 111.38°E
Startdatum 19. Okt. 2025
Alter 2 days
Typ internet

Technische Details

Klassifizierung Payload
Masse 575.00 kg
Trockenmasse 530.00 kg
Gesamtmasse 575.00 kg
Länge 0.30 m
Durchmesser 4.10 m
Spannweite 29.00 m
Form Box + pan
Hersteller SPXS
Bus-Typ Starlink V2MO
Phasenstatus In Orbit
Besitzer/Staat SPXS/US

Große Konstellationen

Loading constellations...